Total_Precipitation_Accumulation
0.05 0.04 0.02 0.01 0.01 0.01 0.02 0.01 0.01 0.01 0.01 0.01 0.01 0.01 0.01 0.02 0.02 0.02 0.03 0.02 0.01 0.01 0.01 0.01 0.01 0.01 0.01 0.01 0.01 0.01 0.01 0.01 0.01 0.01 0.02 0.03 0.03 0.02 0.02 0.01 0.01 0.01 0.01 0.02 0.06 0.12 0.13 0.12 0.11 0.10 0.11 0.17 0.22 0.20 0.19 0.17 0.14 0.13 0.14 0.17 0.19 0.18 0.16 0.23 0.25 0.18 0.06 0.01 0.01 0.02 0.02 0.03 0.05 0.07 0.10 0.12 0.10 0.07 0.08 0.10 0.17 0.20 0.18 0.18 0.17
0.02 0.01 0.01 0.01 0.01 0.02 0.02 0.02 0.02 0.01 0.01 0.01 0.01 0.01 0.01 0.00 0.01 0.01 0.02 0.02 0.03 0.05 0.04 0.15 0.03 0.04 0.04 0.03 0.02 0.02 0.02 0.02 0.02 0.02 0.02 0.02 0.02 0.02 0.02 0.02 0.01 0.01 0.01 0.01 0.01 0.02 0.06 0.13 0.11 0.09 0.11 0.16 0.20 0.21 0.21 0.21 0.21 0.19 0.16 0.15 0.17 0.18 0.15 0.18 0.22 0.17 0.13 0.04 0.02 0.01 0.01 0.03 0.07 0.06 0.09 0.10 0.12 0.12 0.10 0.11 0.10 0.15 0.18 0.17 0.20
0.01 0.01 0.02 0.02 0.02 0.02 0.02 0.02 0.03 0.03 0.03 0.04 0.02 0.03 0.03 0.02 0.01 0.03 0.02 0.03 0.03 0.04 0.06 0.09 0.08 0.10 0.10 0.12 0.10 0.09 0.08 0.07 0.06 0.05 0.06 0.06 0.06 0.05 0.04 0.03 0.02 0.02 0.02 0.01 0.01 0.06 0.04 0.06 0.08 0.10 0.12 0.17 0.17 0.20 0.20 0.22 0.22 0.22 0.18 0.15 0.13 0.12 0.12 0.13 0.17 0.18 0.13 0.08 0.04 0.02 0.02 0.03 0.05 0.11 0.10 0.10 0.10 0.12 0.15 0.15 0.17 0.16 0.18 0.14 0.16
0.01 0.02 0.03 0.03 0.02 0.03 0.02 0.03 0.03 0.02 0.02 0.04 0.02 0.04 0.02 0.03 0.03 0.06 0.07 0.09 0.09 0.08 0.08 0.07 0.06 0.05 0.04 0.04 0.04 0.03 0.03 0.03 0.03 0.03 0.03 0.03 0.03 0.02 0.02 0.03 0.06 0.08 0.07 0.04 0.05 0.04 0.03 0.06 0.05 0.04 0.10 0.16 0.15 0.15 0.16 0.20 0.22 0.22 0.20 0.16 0.13 0.10 0.09 0.10 0.15 0.18 0.14 0.12 0.07 0.05 0.03 0.03 0.04 0.05 0.07 0.11 0.13 0.17 0.20 0.21 0.20 0.21 0.18 0.17 0.19
0.02 0.03 0.02 0.03 0.02 0.03 0.02 0.02 0.02 0.03 0.05 0.04 0.04 0.06 0.04 0.05 0.05 0.06 0.06 0.05 0.05 0.04 0.04 0.05 0.05 0.05 0.05 0.04 0.04 0.03 0.03 0.03 0.03 0.03 0.03 0.03 0.02 0.03 0.03 0.03 0.03 0.03 0.04 0.05 0.06 0.06 0.06 0.05 0.07 0.12 0.09 0.06 0.09 0.16 0.16 0.19 0.24 0.21 0.18 0.18 0.15 0.11 0.11 0.09 0.13 0.12 0.18 0.16 0.11 0.05 0.04 0.03 0.04 0.05 0.06 0.10 0.13 0.19 0.26 0.25 0.27 0.26 0.22 0.19 0.16
0.03 0.03 0.02 0.02 0.03 0.02 0.03 0.03 0.03 0.03 0.03 0.03 0.04 0.04 0.04 0.04 0.04 0.04 0.04 0.05 0.05 0.05 0.05 0.05 0.05 0.05 0.05 0.04 0.04 0.03 0.03 0.03 0.04 0.04 0.03 0.03 0.03 0.03 0.03 0.04 0.04 0.03 0.03 0.03 0.03 0.03 0.05 0.06 0.06 0.06 0.08 0.08 0.06 0.07 0.10 0.14 0.22 0.24 0.22 0.18 0.17 0.15 0.16 0.16 0.10 0.10 0.15 0.13 0.11 0.10 0.05 0.05 0.05 0.06 0.07 0.09 0.11 0.14 0.21 0.24 0.26 0.27 0.29 0.27 0.23
0.02 0.02 0.02 0.03 0.03 0.03 0.02 0.02 0.02 0.02 0.03 0.04 0.04 0.04 0.04 0.05 0.05 0.05 0.05 0.07 0.06 0.05 0.04 0.04 0.03 0.04 0.04 0.03 0.03 0.03 0.03 0.03 0.03 0.04 0.03 0.03 0.03 0.04 0.03 0.04 0.04 0.04 0.04 0.03 0.03 0.03 0.03 0.04 0.06 0.06 0.07 0.07 0.09 0.07 0.08 0.11 0.15 0.13 0.21 0.20 0.22 0.21 0.23 0.23 0.22 0.17 0.17 0.14 0.12 0.10 0.06 0.04 0.05 0.06 0.06 0.07 0.09 0.11 0.14 0.18 0.23 0.26 0.25 0.27 0.27
0.04 0.04 0.04 0.02 0.02 0.02 0.02 0.02 0.03 0.04 0.04 0.04 0.05 0.05 0.06 0.06 0.07 0.07 0.07 0.06 0.06 0.04 0.04 0.04 0.04 0.04 0.04 0.04 0.04 0.04 0.05 0.05 0.05 0.05 0.05 0.04 0.04 0.04 0.04 0.04 0.04 0.04 0.03 0.04 0.03 0.04 0.04 0.04 0.04 0.05 0.06 0.08 0.08 0.08 0.09 0.10 0.14 0.20 0.14 0.36 0.23 0.31 0.30 0.24 0.24 0.25 0.21 0.17 0.15 0.14 0.08 0.05 0.04 0.04 0.05 0.07 0.11 0.13 0.13 0.14 0.18 0.20 0.23 0.24 0.25
0.05 0.02 0.02 0.02 0.02 0.03 0.03 0.04 0.04 0.04 0.04 0.05 0.06 0.07 0.08 0.08 0.09 0.09 0.09 0.06 0.06 0.05 0.05 0.06 0.06 0.06 0.06 0.06 0.05 0.06 0.07 0.07 0.07 0.14 0.16 0.08 0.05 0.05 0.05 0.05 0.06 0.05 0.04 0.04 0.04 0.05 0.05 0.05 0.06 0.06 0.06 0.05 0.06 0.08 0.09 0.09 0.13 0.11 0.13 0.19 0.21 0.24 0.22 0.26 0.26 0.26 0.25 0.22 0.22 0.12 0.10 0.08 0.04 0.06 0.07 0.08 0.09 0.10 0.11 0.10 0.11 0.11 0.15 0.18 0.22
0.02 0.02 0.02 0.03 0.03 0.04 0.07 0.06 0.07 0.05 0.11 0.08 0.08 0.09 0.10 0.10 0.14 0.12 0.08 0.07 0.08 0.08 0.09 0.10 0.11 0.09 0.08 0.07 0.08 0.09 0.11 0.15 0.13 0.09 0.11 0.12 0.14 0.11 0.08 0.08 0.07 0.07 0.06 0.05 0.05 0.05 0.05 0.06 0.05 0.05 0.05 0.06 0.06 0.07 0.08 0.10 0.11 0.14 0.11 0.12 0.16 0.16 0.18 0.20 0.22 0.22 0.25 0.26 0.27 0.17 0.16 0.10 0.05 0.03 0.04 0.03 0.03 0.02 0.04 0.06 0.08 0.09 0.12 0.16 0.18
0.02 0.03 0.03 0.03 0.05 0.05 0.06 0.06 0.12 0.08 0.10 0.09 0.10 0.10 0.11 0.11 0.11 0.10 0.09 0.10 0.11 0.08 0.08 0.08 0.09 0.10 0.10 0.10 0.10 0.10 0.12 0.09 0.10 0.13 0.18 0.24 0.26 0.27 0.21 0.15 0.12 0.10 0.08 0.07 0.06 0.05 0.05 0.05 0.05 0.06 0.06 0.06 0.08 0.07 0.08 0.10 0.09 0.11 0.10 0.10 0.14 0.18 0.21 0.17 0.14 0.13 0.17 0.22 0.21 0.23 0.13 0.11 0.04 0.02 0.01 0.02 0.01 0.02 0.03 0.04 0.05 0.08 0.11 0.17 0.21
0.04 0.04 0.04 0.04 0.04 0.05 0.05 0.07 0.09 0.09 0.10 0.12 0.12 0.12 0.11 0.12 0.13 0.10 0.09 0.09 0.08 0.08 0.09 0.09 0.09 0.20 0.13 0.12 0.12 0.13 0.10 0.10 0.15 0.22 0.24 0.32 0.35 0.37 0.36 0.27 0.20 0.15 0.11 0.09 0.07 0.06 0.06 0.06 0.05 0.05 0.06 0.07 0.07 0.09 0.09 0.08 0.09 0.10 0.12 0.14 0.15 0.14 0.15 0.21 0.21 0.15 0.12 0.15 0.17 0.18 0.16 0.10 0.07 0.03 0.02 0.02 0.02 0.02 0.03 0.05 0.06 0.09 0.11 0.13 0.15
0.05 0.05 0.04 0.05 0.05 0.06 0.07 0.09 0.10 0.11 0.12 0.12 0.12 0.12 0.13 0.14 0.12 0.13 0.11 0.11 0.11 0.12 0.10 0.11 0.12 0.13 0.16 0.17 0.15 0.13 0.26 0.13 0.20 0.28 0.28 0.36 0.41 0.49 0.52 0.49 0.33 0.25 0.18 0.14 0.11 0.08 0.07 0.07 0.07 0.06 0.06 0.06 0.08 0.07 0.08 0.10 0.10 0.10 0.12 0.11 0.15 0.21 0.18 0.14 0.16 0.17 0.22 0.20 0.16 0.15 0.17 0.10 0.10 0.07 0.03 0.04 0.08 0.04 0.04 0.05 0.06 0.07 0.09 0.11 0.11
0.05 0.05 0.05 0.05 0.06 0.08 0.09 0.10 0.10 0.10 0.11 0.12 0.12 0.13 0.16 0.15 0.15 0.16 0.15 0.15 0.14 0.12 0.12 0.13 0.15 0.16 0.20 0.24 0.25 0.21 0.19 0.18 0.22 0.28 0.31 0.35 0.44 0.70 0.56 0.44 0.33 0.23 0.17 0.14 0.13 0.11 0.11 0.10 0.09 0.08 0.08 0.08 0.10 0.10 0.10 0.10 0.12 0.13 0.14 0.14 0.14 0.14 0.17 0.20 0.17 0.17 0.18 0.21 0.23 0.23 0.15 0.16 0.10 0.08 0.08 0.08 0.12 0.08 0.10 0.12 0.12 0.11 0.11 0.12 0.09
0.05 0.05 0.05 0.06 0.07 0.08 0.09 0.10 0.11 0.10 0.11 0.12 0.12 0.13 0.15 0.17 0.17 0.19 0.19 0.19 0.19 0.18 0.17 0.18 0.17 0.19 0.20 0.23 0.29 0.25 0.21 0.21 0.30 0.36 0.38 0.49 0.61 0.78 0.55 0.41 0.30 0.24 0.19 0.15 0.14 0.14 0.13 0.12 0.11 0.09 0.09 0.10 0.12 0.12 0.15 0.15 0.16 0.15 0.18 0.15 0.13 0.12 0.12 0.24 0.13 0.15 0.15 0.15 0.14 0.13 0.10 0.11 0.09 0.11 0.25 0.18 0.25 0.18 0.20 0.15 0.19 0.14 0.15 0.16 0.16
0.05 0.05 0.07 0.07 0.08 0.09 0.10 0.11 0.11 0.11 0.12 0.13 0.15 0.15 0.16 0.16 0.17 0.16 0.18 0.18 0.18 0.17 0.16 0.17 0.16 0.15 0.13 0.14 0.18 0.21 0.18 0.20 0.28 0.38 0.51 0.68 0.75 0.73 0.60 0.53 0.32 0.24 0.22 0.28 0.21 0.21 0.19 0.21 0.17 0.15 0.12 0.12 0.13 0.13 0.12 0.16 0.15 0.17 0.17 0.14 0.13 0.12 0.10 0.07 0.06 0.05 0.06 0.15 0.07 0.07 0.08 0.07 0.08 0.11 0.14 0.13 0.25 0.23 0.18 0.22 0.24 0.28 0.29 0.29 0.26
0.06 0.07 0.08 0.08 0.10 0.11 0.13 0.13 0.14 0.13 0.14 0.15 0.15 0.15 0.16 0.17 0.19 0.20 0.22 0.20 0.20 0.18 0.19 0.17 0.15 0.13 0.13 0.15 0.16 0.11 0.11 0.16 0.23 0.31 0.43 0.49 0.70 0.73 0.69 0.53 0.34 0.25 0.22 0.19 0.21 0.21 0.23 0.23 0.25 0.21 0.18 0.16 0.13 0.14 0.17 0.21 0.22 0.20 0.17 0.15 0.13 0.12 0.12 0.09 0.08 0.07 0.09 0.07 0.08 0.09 0.09 0.10 0.13 0.14 0.18 0.13 0.12 0.17 0.23 0.32 0.33 0.25 0.24 0.25 0.21
0.07 0.08 0.10 0.11 0.13 0.13 0.15 0.16 0.16 0.15 0.14 0.15 0.15 0.16 0.19 0.19 0.18 0.17 0.19 0.17 0.15 0.12 0.11 0.10 0.10 0.12 0.11 0.11 0.12 0.11 0.07 0.09 0.16 0.28 0.35 0.43 0.66 0.79 0.76 0.58 0.41 0.33 0.27 0.22 0.21 0.22 0.19 0.19 0.22 0.23 0.22 0.19 0.14 0.17 0.22 0.26 0.34 0.25 0.18 0.16 0.14 0.14 0.12 0.10 0.11 0.12 0.11 0.15 0.19 0.12 0.11 0.10 0.11 0.14 0.16 0.19 0.33 0.35 0.28 0.38 0.26 0.18 0.21 0.19 0.18
0.09 0.11 0.13 0.12 0.14 0.15 0.14 0.14 0.14 0.14 0.14 0.14 0.16 0.19 0.18 0.15 0.12 0.12 0.12 0.12 0.11 0.10 0.11 0.10 0.08 0.07 0.08 0.10 0.11 0.15 0.16 0.16 0.20 0.24 0.27 0.38 0.48 0.56 0.48 0.44 0.38 0.32 0.32 0.32 0.27 0.27 0.23 0.22 0.23 0.25 0.23 0.17 0.16 0.21 0.26 0.36 0.36 0.24 0.16 0.14 0.13 0.11 0.09 0.10 0.13 0.17 0.17 0.17 0.18 0.17 0.18 0.18 0.18 0.13 0.14 0.13 0.13 0.23 0.34 0.32 0.25 0.25 0.30 0.23 0.17
0.11 0.13 0.13 0.15 0.13 0.11 0.12 0.14 0.14 0.15 0.15 0.14 0.15 0.17 0.14 0.12 0.12 0.13 0.12 0.11 0.11 0.09 0.09 0.09 0.09 0.08 0.08 0.10 0.11 0.17 0.22 0.19 0.22 0.23 0.27 0.36 0.49 0.53 0.48 0.43 0.38 0.33 0.35 0.36 0.36 0.33 0.28 0.27 0.26 0.24 0.25 0.23 0.20 0.25 0.35 0.56 0.60 0.42 0.19 0.16 0.13 0.09 0.07 0.09 0.10 0.12 0.13 0.14 0.13 0.13 0.17 0.17 0.19 0.16 0.14 0.14 0.14 0.15 0.14 0.22 0.28 0.26 0.27 0.26 0.22
0.13 0.13 0.13 0.11 0.10 0.11 0.12 0.14 0.16 0.15 0.16 0.18 0.18 0.14 0.12 0.14 0.12 0.11 0.11 0.10 0.11 0.10 0.08 0.07 0.09 0.09 0.09 0.10 0.14 0.19 0.25 0.32 0.33 0.34 0.30 0.29 0.34 0.50 0.40 0.33 0.27 0.31 0.35 0.38 0.33 0.27 0.22 0.21 0.21 0.23 0.23 0.24 0.28 0.30 0.36 0.43 0.43 0.47 0.56 0.35 0.14 0.09 0.09 0.12 0.15 0.15 0.16 0.15 0.15 0.14 0.15 0.17 0.20 0.18 0.18 0.15 0.17 0.14 0.12 0.11 0.17 0.21 0.19 0.23 0.26
0.12 0.11 0.11 0.10 0.10 0.12 0.14 0.15 0.16 0.18 0.17 0.16 0.16 0.12 0.10 0.11 0.12 0.12 0.12 0.13 0.12 0.10 0.09 0.12 0.15 0.14 0.14 0.17 0.22 0.28 0.23 0.21 0.20 0.17 0.14 0.17 0.23 0.41 0.35 0.26 0.22 0.30 0.33 0.31 0.29 0.26 0.22 0.18 0.19 0.22 0.26 0.30 0.31 0.35 0.51 0.50 0.48 0.49 0.44 0.32 0.20 0.15 0.15 0.18 0.22 0.25 0.21 0.18 0.17 0.18 0.19 0.19 0.23 0.20 0.18 0.15 0.11 0.10 0.10 0.11 0.11 0.12 0.13 0.13 0.17
0.11 0.11 0.10 0.10 0.11 0.12 0.15 0.17 0.17 0.17 0.17 0.18 0.19 0.15 0.12 0.11 0.11 0.12 0.15 0.18 0.18 0.19 0.19 0.20 0.21 0.20 0.17 0.16 0.16 0.19 0.20 0.20 0.19 0.16 0.15 0.18 0.22 0.35 0.31 0.25 0.25 0.29 0.31 0.30 0.25 0.21 0.19 0.20 0.19 0.23 0.31 0.37 0.43 0.48 0.56 0.57 0.49 0.45 0.53 0.47 0.39 0.39 0.39 0.42 0.42 0.34 0.28 0.23 0.20 0.19 0.18 0.17 0.18 0.18 0.17 0.15 0.12 0.10 0.08 0.10 0.11 0.12 0.18 0.19 0.13
0.11 0.12 0.11 0.11 0.11 0.12 0.14 0.15 0.16 0.18 0.21 0.20 0.16 0.14 0.12 0.12 0.13 0.13 0.15 0.20 0.20 0.19 0.15 0.17 0.18 0.18 0.18 0.19 0.20 0.22 0.21 0.20 0.20 0.19 0.19 0.19 0.23 0.31 0.33 0.26 0.29 0.30 0.26 0.24 0.21 0.19 0.19 0.17 0.17 0.21 0.28 0.35 0.45 0.53 0.71 0.81 0.60 0.57 0.61 0.52 0.52 0.53 0.50 0.47 0.44 0.46 0.35 0.25 0.22 0.19 0.16 0.13 0.10 0.14 0.13 0.12 0.13 0.11 0.10 0.10 0.11 0.12 0.33 0.20 0.12
0.12 0.12 0.12 0.11 0.12 0.13 0.14 0.15 0.16 0.17 0.17 0.17 0.16 0.14 0.11 0.11 0.12 0.13 0.17 0.22 0.23 0.19 0.17 0.20 0.22 0.22 0.23 0.27 0.29 0.27 0.23 0.21 0.21 0.20 0.21 0.20 0.23 0.29 0.33 0.24 0.24 0.24 0.26 0.22 0.19 0.17 0.17 0.20 0.21 0.24 0.30 0.40 0.43 0.46 0.61 0.56 0.55 0.59 0.58 0.55 0.45 0.36 0.50 0.49 0.39 0.31 0.30 0.28 0.21 0.16 0.14 0.12 0.11 0.10 0.11 0.12 0.14 0.12 0.12 0.13 0.15 0.12 0.10 0.10 0.11
0.13 0.13 0.12 0.11 0.12 0.13 0.14 0.12 0.13 0.15 0.14 0.12 0.12 0.12 0.12 0.13 0.17 0.16 0.20 0.22 0.18 0.21 0.24 0.25 0.26 0.27 0.30 0.32 0.35 0.32 0.28 0.25 0.22 0.20 0.21 0.19 0.18 0.20 0.28 0.23 0.22 0.20 0.19 0.18 0.18 0.18 0.20 0.21 0.26 0.25 0.26 0.28 0.30 0.31 0.46 0.27 0.28 0.37 0.47 0.51 0.58 0.47 0.39 0.37 0.33 0.28 0.26 0.20 0.16 0.14 0.12 0.12 0.16 0.14 0.13 0.13 0.14 0.14 0.13 0.13 0.13 0.13 0.12 0.11 0.11
0.14 0.12 0.11 0.11 0.13 0.13 0.14 0.14 0.14 0.13 0.11 0.10 0.10 0.10 0.11 0.14 0.16 0.19 0.23 0.22 0.20 0.24 0.28 0.31 0.33 0.33 0.34 0.30 0.29 0.28 0.27 0.23 0.21 0.18 0.17 0.18 0.16 0.16 0.28 0.26 0.24 0.21 0.17 0.18 0.20 0.22 0.23 0.26 0.26 0.24 0.26 0.27 0.28 0.33 0.26 0.19 0.25 0.38 0.38 0.40 0.42 0.49 0.42 0.31 0.22 0.21 0.20 0.18 0.15 0.13 0.12 0.13 0.14 0.16 0.19 0.18 0.17 0.15 0.12 0.11 0.11 0.11 0.10 0.10 0.09
0.14 0.13 0.11 0.13 0.14 0.15 0.15 0.14 0.14 0.12 0.12 0.14 0.14 0.11 0.10 0.11 0.15 0.20 0.25 0.30 0.36 0.36 0.39 0.39 0.40 0.44 0.45 0.34 0.27 0.20 0.23 0.25 0.23 0.22 0.20 0.21 0.20 0.25 0.31 0.29 0.25 0.19 0.18 0.19 0.19 0.18 0.22 0.25 0.33 0.37 0.43 0.46 0.39 0.39 0.40 0.42 0.36 0.27 0.21 0.24 0.33 0.38 0.43 0.41 0.37 0.23 0.22 0.16 0.15 0.17 0.18 0.18 0.20 0.21 0.20 0.19 0.16 0.14 0.12 0.12 0.12 0.11 0.10 0.10 0.13
0.14 0.13 0.12 0.13 0.13 0.13 0.13 0.13 0.11 0.11 0.12 0.13 0.17 0.20 0.17 0.19 0.21 0.17 0.13 0.23 0.40 0.66 0.77 0.62 0.57 0.55 0.44 0.45 0.35 0.22 0.21 0.26 0.27 0.23 0.22 0.23 0.29 0.30 0.31 0.28 0.24 0.23 0.20 0.19 0.21 0.25 0.28 0.31 0.30 0.28 0.25 0.26 0.34 0.38 0.36 0.32 0.30 0.24 0.20 0.20 0.24 0.38 0.50 0.49 0.47 0.41 0.31 0.24 0.22 0.20 0.21 0.20 0.19 0.17 0.17 0.19 0.17 0.14 0.12 0.14 0.14 0.11 0.10 0.09 0.09
0.16 0.13 0.12 0.13 0.12 0.13 0.12 0.11 0.10 0.11 0.12 0.12 0.12 0.16 0.20 0.25 0.25 0.26 0.19 0.14 0.20 0.30 0.52 0.66 0.65 0.56 0.49 0.39 0.36 0.39 0.39 0.31 0.24 0.21 0.21 0.22 0.26 0.29 0.28 0.28 0.28 0.24 0.22 0.16 0.17 0.19 0.20 0.22 0.24 0.26 0.27 0.26 0.28 0.31 0.31 0.31 0.35 0.35 0.31 0.25 0.23 0.25 0.34 0.49 0.43 0.31 0.29 0.29 0.27 0.23 0.19 0.17 0.18 0.17 0.16 0.16 0.14 0.13 0.12 0.14 0.14 0.14 0.14 0.15 0.13
0.19 0.15 0.14 0.13 0.13 0.14 0.13 0.11 0.11 0.12 0.13 0.12 0.12 0.14 0.15 0.16 0.21 0.22 0.17 0.17 0.17 0.22 0.28 0.33 0.33 0.36 0.56 0.51 0.28 0.24 0.26 0.22 0.18 0.17 0.18 0.22 0.25 0.26 0.30 0.30 0.23 0.24 0.19 0.18 0.18 0.17 0.18 0.19 0.22 0.23 0.25 0.26 0.27 0.28 0.26 0.24 0.27 0.32 0.35 0.31 0.26 0.25 0.25 0.30 0.44 0.43 0.43 0.42 0.36 0.28 0.25 0.20 0.18 0.16 0.17 0.14 0.12 0.12 0.13 0.14 0.14 0.17 0.18 0.14 0.12
0.23 0.19 0.16 0.15 0.14 0.13 0.12 0.12 0.12 0.12 0.12 0.11 0.12 0.12 0.11 0.10 0.09 0.14 0.23 0.23 0.18 0.18 0.19 0.22 0.24 0.29 0.40 0.47 0.40 0.25 0.21 0.20 0.19 0.17 0.19 0.24 0.26 0.25 0.29 0.25 0.26 0.19 0.16 0.15 0.17 0.18 0.16 0.18 0.20 0.22 0.23 0.23 0.24 0.24 0.23 0.22 0.23 0.24 0.29 0.35 0.35 0.29 0.26 0.28 0.30 0.34 0.35 0.34 0.36 0.37 0.34 0.30 0.24 0.19 0.16 0.16 0.15 0.14 0.15 0.20 0.19 0.18 0.18 0.17 0.12
0.22 0.20 0.18 0.15 0.13 0.12 0.12 0.13 0.12 0.12 0.12 0.12 0.12 0.12 0.12 0.11 0.12 0.10 0.11 0.15 0.21 0.23 0.19 0.17 0.18 0.22 0.28 0.38 0.37 0.32 0.25 0.22 0.21 0.22 0.23 0.24 0.23 0.23 0.31 0.24 0.21 0.17 0.16 0.16 0.15 0.17 0.18 0.19 0.21 0.22 0.21 0.20 0.20 0.19 0.20 0.20 0.21 0.22 0.22 0.22 0.25 0.28 0.26 0.25 0.26 0.27 0.29 0.35 0.37 0.29 0.29 0.37 0.30 0.25 0.20 0.17 0.18 0.21 0.19 0.18 0.16 0.15 0.14 0.17 0.16
0.20 0.20 0.19 0.16 0.15 0.13 0.13 0.13 0.13 0.12 0.12 0.13 0.13 0.13 0.12 0.13 0.15 0.14 0.15 0.10 0.11 0.16 0.18 0.16 0.13 0.14 0.17 0.26 0.32 0.21 0.19 0.20 0.22 0.23 0.26 0.24 0.22 0.21 0.24 0.22 0.21 0.15 0.13 0.13 0.14 0.15 0.16 0.16 0.18 0.19 0.18 0.17 0.17 0.17 0.17 0.18 0.18 0.17 0.18 0.19 0.19 0.19 0.20 0.20 0.20 0.23 0.25 0.28 0.32 0.28 0.24 0.24 0.26 0.29 0.30 0.26 0.21 0.19 0.20 0.21 0.18 0.18 0.18 0.18 0.15
0.18 0.17 0.14 0.14 0.14 0.14 0.13 0.14 0.14 0.13 0.12 0.12 0.12 0.13 0.14 0.13 0.14 0.17 0.20 0.18 0.20 0.20 0.16 0.14 0.11 0.09 0.15 0.19 0.25 0.19 0.16 0.18 0.20 0.23 0.25 0.23 0.20 0.22 0.21 0.24 0.26 0.18 0.14 0.12 0.12 0.12 0.13 0.14 0.14 0.15 0.13 0.13 0.14 0.13 0.13 0.13 0.15 0.15 0.14 0.14 0.14 0.14 0.15 0.16 0.16 0.16 0.17 0.19 0.21 0.23 0.23 0.22 0.21 0.22 0.23 0.28 0.28 0.28 0.24 0.21 0.21 0.21 0.20 0.16 0.12
0.18 0.17 0.14 0.12 0.12 0.13 0.13 0.13 0.14 0.14 0.13 0.13 0.13 0.14 0.14 0.12 0.15 0.16 0.17 0.17 0.22 0.22 0.19 0.17 0.15 0.12 0.10 0.13 0.18 0.19 0.18 0.16 0.19 0.21 0.21 0.22 0.21 0.17 0.16 0.16 0.13 0.12 0.13 0.13 0.12 0.12 0.11 0.12 0.12 0.11 0.11 0.11 0.12 0.14 0.14 0.14 0.14 0.14 0.13 0.12 0.10 0.10 0.11 0.11 0.11 0.12 0.14 0.15 0.17 0.19 0.21 0.24 0.24 0.22 0.23 0.23 0.25 0.27 0.26 0.20 0.17 0.17 0.17 0.16 0.15
0.20 0.17 0.14 0.12 0.12 0.13 0.13 0.14 0.14 0.14 0.13 0.13 0.12 0.13 0.13 0.12 0.13 0.14 0.13 0.14 0.18 0.19 0.18 0.16 0.11 0.09 0.09 0.07 0.14 0.15 0.15 0.18 0.23 0.24 0.23 0.21 0.17 0.13 0.11 0.10 0.11 0.13 0.12 0.13 0.12 0.11 0.11 0.11 0.11 0.10 0.10 0.12 0.13 0.13 0.13 0.13 0.12 0.11 0.10 0.09 0.09 0.09 0.11 0.11 0.11 0.10 0.11 0.12 0.14 0.15 0.16 0.20 0.22 0.21 0.20 0.20 0.21 0.21 0.23 0.26 0.26 0.23 0.20 0.18 0.15
0.18 0.17 0.15 0.14 0.14 0.14 0.14 0.14 0.13 0.12 0.12 0.12 0.12 0.12 0.13 0.12 0.13 0.13 0.13 0.13 0.14 0.15 0.16 0.14 0.12 0.09 0.12 0.11 0.12 0.16 0.17 0.17 0.16 0.18 0.20 0.20 0.17 0.13 0.10 0.11 0.13 0.11 0.10 0.10 0.10 0.10 0.09 0.09 0.09 0.09 0.10 0.09 0.08 0.08 0.08 0.08 0.08 0.07 0.07 0.06 0.07 0.08 0.09 0.08 0.10 0.10 0.10 0.09 0.10 0.12 0.14 0.16 0.19 0.21 0.20 0.17 0.17 0.17 0.18 0.18 0.21 0.25 0.29 0.27 0.24
0.16 0.14 0.13 0.13 0.15 0.15 0.15 0.14 0.13 0.12 0.12 0.12 0.11 0.12 0.13 0.12 0.11 0.11 0.13 0.12 0.10 0.11 0.14 0.14 0.13 0.12 0.14 0.16 0.19 0.17 0.16 0.17 0.18 0.19 0.20 0.19 0.15 0.12 0.12 0.12 0.12 0.10 0.10 0.10 0.10 0.09 0.08 0.08 0.08 0.07 0.06 0.06 0.06 0.07 0.07 0.07 0.06 0.06 0.05 0.05 0.06 0.06 0.06 0.06 0.07 0.08 0.09 0.09 0.09 0.09 0.11 0.12 0.14 0.17 0.18 0.16 0.14 0.13 0.14 0.15 0.15 0.17 0.20 0.23 0.24
0.18 0.16 0.14 0.13 0.15 0.15 0.15 0.14 0.13 0.14 0.14 0.13 0.12 0.12 0.13 0.12 0.12 0.13 0.14 0.11 0.10 0.10 0.12 0.14 0.14 0.14 0.17 0.19 0.22 0.18 0.13 0.13 0.13 0.13 0.14 0.14 0.15 0.15 0.13 0.10 0.09 0.10 0.12 0.12 0.11 0.10 0.09 0.08 0.08 0.06 0.05 0.05 0.05 0.05 0.06 0.06 0.06 0.05 0.05 0.05 0.05 0.05 0.05 0.06 0.06 0.06 0.07 0.08 0.08 0.08 0.08 0.09 0.10 0.12 0.14 0.15 0.15 0.13 0.12 0.12 0.11 0.13 0.13 0.14 0.14
0.20 0.18 0.17 0.16 0.16 0.17 0.15 0.14 0.14 0.15 0.15 0.14 0.13 0.13 0.14 0.13 0.13 0.14 0.13 0.11 0.10 0.10 0.11 0.15 0.16 0.17 0.20 0.23 0.20 0.18 0.15 0.16 0.15 0.15 0.16 0.14 0.12 0.11 0.10 0.11 0.11 0.11 0.12 0.12 0.12 0.11 0.10 0.09 0.07 0.06 0.05 0.04 0.05 0.05 0.06 0.06 0.05 0.05 0.04 0.04 0.04 0.04 0.04 0.04 0.05 0.05 0.06 0.06 0.06 0.07 0.08 0.08 0.08 0.09 0.10 0.12 0.14 0.14 0.13 0.14 0.14 0.14 0.14 0.14 0.13
0.20 0.20 0.19 0.17 0.16 0.16 0.16 0.14 0.15 0.15 0.14 0.13 0.13 0.14 0.15 0.13 0.13 0.14 0.13 0.11 0.10 0.10 0.11 0.12 0.15 0.16 0.19 0.20 0.18 0.17 0.12 0.13 0.14 0.13 0.15 0.15 0.13 0.11 0.11 0.10 0.11 0.11 0.11 0.12 0.13 0.12 0.10 0.09 0.07 0.06 0.05 0.05 0.05 0.05 0.06 0.06 0.05 0.05 0.05 0.05 0.05 0.05 0.05 0.05 0.05 0.05 0.05 0.05 0.06 0.06 0.06 0.07 0.08 0.09 0.09 0.11 0.10 0.11 0.12 0.13 0.14 0.14 0.15 0.14 0.13
0.20 0.21 0.22 0.20 0.18 0.18 0.19 0.17 0.15 0.13 0.12 0.12 0.12 0.13 0.14 0.13 0.14 0.14 0.12 0.12 0.11 0.10 0.10 0.10 0.12 0.14 0.16 0.16 0.16 0.14 0.12 0.11 0.12 0.13 0.13 0.12 0.12 0.11 0.10 0.10 0.10 0.11 0.12 0.12 0.12 0.10 0.09 0.08 0.07 0.06 0.06 0.05 0.06 0.06 0.06 0.06 0.06 0.05 0.06 0.06 0.06 0.06 0.06 0.06 0.06 0.06 0.06 0.06 0.06 0.06 0.06 0.06 0.06 0.07 0.08 0.08 0.09 0.09 0.10 0.10 0.11 0.12 0.12 0.13 0.13
0.21 0.21 0.22 0.22 0.20 0.19 0.18 0.18 0.16 0.15 0.15 0.14 0.13 0.13 0.13 0.13 0.13 0.13 0.12 0.11 0.11 0.10 0.11 0.11 0.12 0.13 0.15 0.16 0.14 0.12 0.11 0.11 0.12 0.12 0.13 0.11 0.10 0.10 0.10 0.10 0.10 0.10 0.10 0.10 0.09 0.09 0.08 0.08 0.07 0.06 0.05 0.05 0.05 0.05 0.05 0.05 0.05 0.06 0.06 0.06 0.06 0.06 0.06 0.06 0.06 0.06 0.07 0.07 0.06 0.06 0.06 0.06 0.05 0.05 0.06 0.07 0.08 0.08 0.08 0.09 0.10 0.10 0.10 0.11 0.11
0.20 0.20 0.21 0.22 0.20 0.20 0.19 0.18 0.18 0.16 0.15 0.15 0.14 0.13 0.13 0.12 0.14 0.13 0.12 0.11 0.11 0.11 0.12 0.12 0.12 0.13 0.15 0.16 0.15 0.14 0.13 0.12 0.12 0.12 0.13 0.12 0.11 0.10 0.10 0.11 0.12 0.11 0.10 0.09 0.09 0.09 0.08 0.08 0.08 0.07 0.06 0.05 0.04 0.04 0.04 0.04 0.04 0.05 0.06 0.06 0.06 0.06 0.06 0.06 0.06 0.06 0.07 0.07 0.06 0.06 0.06 0.06 0.06 0.06 0.06 0.06 0.06 0.07 0.07 0.08 0.08 0.09 0.10 0.11 0.11
0.19 0.20 0.20 0.21 0.20 0.19 0.19 0.18 0.18 0.17 0.16 0.17 0.17 0.16 0.14 0.13 0.14 0.14 0.12 0.11 0.11 0.12 0.12 0.12 0.12 0.13 0.15 0.17 0.16 0.15 0.15 0.14 0.13 0.13 0.13 0.12 0.11 0.10 0.10 0.11 0.11 0.11 0.10 0.10 0.09 0.08 0.08 0.08 0.08 0.08 0.06 0.04 0.03 0.02 0.02 0.02 0.02 0.02 0.03 0.04 0.05 0.05 0.06 0.06 0.06 0.06 0.06 0.06 0.06 0.06 0.06 0.06 0.06 0.06 0.06 0.06 0.06 0.06 0.07 0.07 0.08 0.08 0.08 0.09 0.10
0.19 0.19 0.20 0.20 0.21 0.21 0.20 0.20 0.20 0.20 0.19 0.19 0.20 0.17 0.14 0.14 0.17 0.13 0.13 0.13 0.12 0.12 0.13 0.13 0.12 0.14 0.16 0.18 0.17 0.16 0.15 0.14 0.14 0.13 0.13 0.13 0.12 0.12 0.10 0.09 0.09 0.08 0.07 0.06 0.06 0.06 0.06 0.06 0.06 0.06 0.05 0.04 0.03 0.02 0.02 0.02 0.02 0.02 0.02 0.02 0.03 0.03 0.03 0.03 0.03 0.03 0.04 0.04 0.05 0.05 0.05 0.05 0.05 0.05 0.05 0.05 0.05 0.06 0.06 0.06 0.07 0.07 0.07 0.08 0.09
0.19 0.20 0.20 0.20 0.20 0.22 0.24 0.25 0.24 0.23 0.22 0.21 0.20 0.17 0.15 0.15 0.17 0.13 0.14 0.13 0.13 0.14 0.14 0.13 0.12 0.14 0.16 0.18 0.18 0.17 0.15 0.13 0.12 0.12 0.12 0.12 0.11 0.11 0.11 0.10 0.09 0.08 0.07 0.05 0.05 0.04 0.04 0.04 0.04 0.04 0.04 0.03 0.02 0.02 0.02 0.02 0.02 0.02 0.02 0.02 0.02 0.02 0.02 0.02 0.02 0.02 0.02 0.02 0.02 0.03 0.03 0.03 0.03 0.04 0.04 0.04 0.05 0.05 0.06 0.06 0.06 0.06 0.06 0.07 0.07
0.19 0.20 0.20 0.20 0.20 0.21 0.24 0.25 0.25 0.25 0.24 0.23 0.20 0.19 0.19 0.17 0.14 0.14 0.16 0.14 0.16 0.16 0.14 0.13 0.12 0.13 0.14 0.16 0.17 0.16 0.15 0.13 0.12 0.11 0.10 0.10 0.09 0.09 0.09 0.09 0.08 0.06 0.05 0.04 0.03 0.03 0.03 0.03 0.03 0.03 0.03 0.03 0.03 0.02 0.02 0.02 0.02 0.02 0.02 0.02 0.02 0.01 0.01 0.01 0.01 0.02 0.02 0.02 0.01 0.01 0.01 0.01 0.02 0.02 0.02 0.02 0.03 0.03 0.04 0.05 0.05 0.05 0.05 0.06 0.06
0.19 0.19 0.19 0.20 0.21 0.22 0.22 0.23 0.23 0.23 0.22 0.21 0.21 0.21 0.19 0.14 0.13 0.14 0.15 0.15 0.16 0.15 0.13 0.12 0.12 0.13 0.13 0.13 0.13 0.12 0.11 0.09 0.09 0.08 0.08 0.08 0.07 0.07 0.06 0.05 0.05 0.04 0.03 0.03 0.02 0.02 0.02 0.02 0.02 0.02 0.02 0.02 0.02 0.02 0.02 0.02 0.03 0.02 0.02 0.02 0.02 0.01 0.01 0.01 0.01 0.01 0.01 0.01 0.01 0.01 0.01 0.01 0.01 0.01 0.01 0.01 0.02 0.02 0.02 0.03 0.03 0.04 0.04 0.05 0.05
0.18 0.19 0.19 0.20 0.22 0.22 0.22 0.22 0.22 0.21 0.22 0.22 0.20 0.18 0.15 0.13 0.14 0.14 0.15 0.15 0.15 0.15 0.14 0.14 0.13 0.12 0.11 0.11 0.11 0.10 0.08 0.06 0.05 0.05 0.05 0.04 0.04 0.03 0.03 0.03 0.02 0.02 0.02 0.01 0.01 0.01 0.01 0.01 0.01 0.01 0.02 0.02 0.02 0.02 0.02 0.03 0.03 0.03 0.02 0.02 0.02 0.02 0.01 0.01 0.01 0.01 0.01 0.01 0.01 0.01 0.01 0.01 0.01 0.01 0.01 0.01 0.01 0.01 0.02 0.02 0.02 0.02 0.03 0.03 0.04